Weather History for KWYS - August, 2012

Change the Weather History Date:

Wednesday, August 22, 2012

  Actual Average Record
Temperature  
Mean Temperature 57 °F -  
Max Temperature 77 °F 74 °F 82 °F (2011)
Min Temperature 37 °F 37 °F 32 °F (2011)
Degree Days  
Heating Degree Days 8    
Growing Degree Days 7 (Base 50)    
Moisture  
Dew Point 55 °F    
Average Humidity 84    
Maximum Humidity 89    
Minimum Humidity 81    
Precipitation  
Precipitation 0.00 in - - ()
Sea Level Pressure  
Sea Level Pressure 30.14 in    
Wind  
Wind Speed 4 mph (SSW)    
Max Wind Speed 18 mph    
Max Gust Speed 28 mph    
Visibility 10 miles    
Events      
Averages and records for this station are not official NWS values.
T = Trace of Precipitation, MM = Missing Value Source: NWS Daily Summary

Daily Weather History Graph

Daily Weather History Graph

Search for Another Location

Airport or City:

Trip Planner

Search our weather history database for the weather conditions in past years. The results will help you decide how hot, cold, wet, or windy it might be!

Date:

Astronomy

Aug. 22, 2012 Rise Set
Actual Time 6:35 AM MDT 8:17 PM MDT
Civil Twilight 6:04 AM MDT 8:48 PM MDT
Nautical Twilight 5:27 AM MDT 9:26 PM MDT
Astronomical Twilight 4:46 AM MDT 10:06 PM MDT
Moon 12:37 PM MDT (8/22) 10:43 PM MDT (8/22)
Length of Visible Light 14h 43m
Length of Day
13h 42m
Waxing Crescent, 30% of the Moon is Illuminated
Aug 22
Waxing Crescent
Aug 24
First Quarter
Aug 31
Full
Sep 8
Last Quarter
Sep 15
New

Hourly Weather History & Observations

Time (MDT) Temp. Windchill Dew Point Humidity Pressure Visibility Wind Dir Wind Speed Gust Speed Precip Events Conditions
12:10 AM 55.4 °F - 50.0 °F 82% 30.12 in 10.0 mi SSE 3.5 mph - N/A   Clear
12:30 AM 53.6 °F - 48.2 °F 82% 30.12 in 10.0 mi SSW 3.5 mph - N/A   Clear
12:50 AM 53.6 °F - 48.2 °F 82% 30.11 in 10.0 mi Calm Calm - N/A   Partly Cloudy
1:10 AM 50.0 °F - 46.4 °F 87% 30.11 in 10.0 mi Calm Calm - N/A   Mostly Cloudy
1:30 AM 50.0 °F - 44.6 °F 82% 30.11 in 10.0 mi Calm Calm - N/A   Mostly Cloudy
1:50 AM 50.0 °F - 44.6 °F 82% 30.11 in 10.0 mi Calm Calm - N/A   Mostly Cloudy
2:10 AM 48.2 °F - 44.6 °F 87% 30.11 in 10.0 mi Calm Calm - N/A   Clear
2:30 AM 48.2 °F - 44.6 °F 87% 30.13 in 10.0 mi West 5.8 mph - N/A   Clear
2:50 AM 48.2 °F - 44.6 °F 87% 30.13 in 10.0 mi Calm Calm - N/A   Clear
3:10 AM 46.4 °F - 41.0 °F 81% 30.13 in 10.0 mi Calm Calm - N/A   Clear
3:30 AM 46.4 °F 45.2 °F 41.0 °F 81% 30.14 in 10.0 mi ESE 3.5 mph - N/A   Clear
3:50 AM 42.8 °F 40.1 °F 39.2 °F 87% 30.14 in 10.0 mi SSW 4.6 mph - N/A   Partly Cloudy
4:10 AM 44.6 °F - 39.2 °F 81% 30.14 in 10.0 mi Calm Calm - N/A   Clear
4:30 AM 44.6 °F 43.1 °F 39.2 °F 81% 30.14 in 10.0 mi SE 3.5 mph - N/A   Clear
4:50 AM 42.8 °F - 37.4 °F 81% 30.14 in 10.0 mi Calm Calm - N/A   Scattered Clouds
5:10 AM 41.0 °F - 37.4 °F 87% 30.14 in 10.0 mi Calm Calm - N/A   Partly Cloudy
5:30 AM 39.2 °F - 35.6 °F 87% 30.14 in 10.0 mi Calm Calm - N/A   Clear
5:50 AM 39.2 °F - 35.6 °F 87% 30.15 in 10.0 mi Calm Calm - N/A   Clear
6:10 AM 39.2 °F - 35.6 °F 87% 30.15 in 10.0 mi Calm Calm - N/A   Scattered Clouds
6:30 AM 37.4 °F - 33.8 °F 87% 30.16 in 10.0 mi Calm Calm - N/A   Partly Cloudy
6:50 AM 37.4 °F - 32.0 °F 81% 30.16 in 10.0 mi Calm Calm - N/A   Clear
7:10 AM 37.4 °F - 33.8 °F 87% 30.16 in 10.0 mi Calm Calm - N/A   Clear
7:30 AM 41.0 °F 39.0 °F 35.6 °F 81% 30.17 in 10.0 mi SSW 3.5 mph - N/A   Partly Cloudy
7:50 AM 44.6 °F - 39.2 °F 81% 30.17 in 10.0 mi Calm Calm - N/A   Scattered Clouds
8:10 AM 48.2 °F - 42.8 °F 82% 30.17 in 10.0 mi Calm Calm - N/A   Mostly Cloudy
8:30 AM 50.0 °F - 44.6 °F 82% 30.18 in 10.0 mi Calm Calm - N/A   Overcast
8:50 AM 50.0 °F - 46.4 °F 87% 30.18 in 10.0 mi Calm Calm - N/A   Overcast
9:10 AM 51.8 °F - 46.4 °F 82% 30.18 in 10.0 mi Calm Calm - N/A   Mostly Cloudy
9:30 AM 53.6 °F - 48.2 °F 82% 30.18 in 10.0 mi Calm Calm - N/A   Partly Cloudy
9:50 AM 57.2 °F - 51.8 °F 82% 30.18 in 10.0 mi Calm Calm - N/A   Clear
10:10 AM 59.0 °F - 55.4 °F 88% 30.18 in 10.0 mi Calm Calm - N/A   Clear
10:30 AM 62.6 °F - 57.2 °F 82% 30.17 in 10.0 mi SW 3.5 mph - N/A   Clear
10:50 AM 64.4 °F - 59.0 °F 83% 30.17 in 10.0 mi Calm Calm - N/A   Clear
11:10 AM 68.0 °F - 62.6 °F 83% 30.17 in 10.0 mi South 3.5 mph - N/A   Clear
11:30 AM 69.8 °F - 64.4 °F 83% 30.16 in 10.0 mi SW 8.1 mph - N/A   Clear
11:50 AM 71.6 °F - 66.2 °F 83% 30.15 in 10.0 mi West 8.1 mph 27.6 mph N/A   Clear
12:10 PM 73.4 °F - 68.0 °F 83% 30.15 in 10.0 mi WSW 13.8 mph 20.7 mph N/A   Clear
12:30 PM 73.4 °F - 68.0 °F 83% 30.15 in 10.0 mi WSW 9.2 mph 17.3 mph N/A   Partly Cloudy
12:50 PM 69.8 °F - 66.2 °F 88% 30.15 in 10.0 mi West 8.1 mph 16.1 mph N/A   Mostly Cloudy
1:10 PM 71.6 °F - 66.2 °F 83% 30.14 in 10.0 mi SW 15.0 mph 18.4 mph N/A   Mostly Cloudy
1:55 PM 73.4 °F - 69.8 °F 88% 30.13 in 10.0 mi SSW 16.1 mph - N/A   Scattered Clouds
2:15 PM 75.2 °F - 71.6 °F 89% 30.13 in 1.8 mi SSW 11.5 mph - N/A   Haze
2:35 PM 75.2 °F - 69.8 °F 83% 30.13 in 10.0 mi South 17.3 mph 20.7 mph N/A   Partly Cloudy
2:55 PM 75.2 °F - 71.6 °F 89% 30.12 in 10.0 mi South 11.5 mph 20.7 mph N/A   Partly Cloudy
3:15 PM 77.0 °F - 71.6 °F 83% 30.12 in 10.0 mi SW 12.7 mph 20.7 mph N/A   Mostly Cloudy
3:35 PM 77.0 °F - 71.6 °F 83% 30.12 in 10.0 mi SW 15.0 mph 20.7 mph N/A   Unknown
3:55 PM 75.2 °F - 69.8 °F 83% 30.12 in 10.0 mi SW 16.1 mph 23.0 mph N/A   Partly Cloudy
4:15 PM 77.0 °F - 71.6 °F 83% 30.12 in 10.0 mi SSW 17.3 mph 25.3 mph N/A   Scattered Clouds
4:35 PM 75.2 °F - 69.8 °F 83% 30.12 in 10.0 mi SW 11.5 mph 17.3 mph N/A   Partly Cloudy
4:55 PM 75.2 °F - 71.6 °F 89% 30.12 in 10.0 mi SSW 18.4 mph 24.2 mph N/A   Scattered Clouds
5:15 PM 75.2 °F - 69.8 °F 83% 30.12 in 10.0 mi SW 15.0 mph 23.0 mph N/A   Partly Cloudy
5:35 PM 75.2 °F - 71.6 °F 89% 30.11 in 10.0 mi SW 12.7 mph 18.4 mph N/A   Mostly Cloudy
5:55 PM 75.2 °F - 71.6 °F 89% 30.11 in 10.0 mi WSW 12.7 mph 19.6 mph N/A   Scattered Clouds
6:15 PM 75.2 °F - 69.8 °F 83% 30.11 in 10.0 mi SW 11.5 mph - N/A   Clear
6:35 PM 75.2 °F - 69.8 °F 83% 30.11 in 10.0 mi WSW 9.2 mph - N/A   Clear
6:55 PM 75.2 °F - 69.8 °F 83% 30.11 in 10.0 mi SSW 12.7 mph 16.1 mph N/A   Clear
7:15 PM 73.4 °F - 68.0 °F 83% 30.11 in 10.0 mi SW 9.2 mph - N/A   Clear
7:35 PM 73.4 °F - 68.0 °F 83% 30.11 in 10.0 mi SSW 8.1 mph - N/A   Clear
7:55 PM 71.6 °F - 66.2 °F 83% 30.11 in 10.0 mi SW 3.5 mph - N/A   Clear
8:15 PM 66.2 °F - 62.6 °F 88% 30.11 in 10.0 mi SSW 3.5 mph - N/A   Clear
8:35 PM 62.6 °F - 59.0 °F 88% 30.11 in 10.0 mi SSW 5.8 mph - N/A   Clear
8:55 PM 64.4 °F - 59.0 °F 83% 30.12 in 10.0 mi South 4.6 mph - N/A   Clear
9:15 PM 62.6 °F - 57.2 °F 82% 30.12 in 10.0 mi South 5.8 mph - N/A   Clear
9:35 PM 62.6 °F - 57.2 °F 82% 30.13 in 10.0 mi SSW 8.1 mph - N/A   Clear
9:55 PM 62.6 °F - 57.2 °F 82% 30.13 in 10.0 mi SSW 5.8 mph - N/A   Partly Cloudy
10:15 PM 60.8 °F - 55.4 °F 82% 30.13 in 10.0 mi NNE 3.5 mph - N/A   Partly Cloudy
10:35 PM 57.2 °F - 51.8 °F 82% 30.13 in 10.0 mi NE 4.6 mph - N/A   Clear
10:55 PM 57.2 °F - 53.6 °F 88% 30.14 in 10.0 mi NE 3.5 mph - N/A   Clear
11:15 PM 57.2 °F - 51.8 °F 82% 30.14 in 10.0 mi Calm Calm - N/A   Clear
11:35 PM 53.6 °F - 48.2 °F 82% 30.14 in 10.0 mi Calm Calm - N/A   Clear
11:55 PM 51.8 °F - 48.2 °F 88% 30.14 in 10.0 mi Calm Calm - N/A   Clear